�������l�o���
Date,Time,MP-1(��Sv/h),MP-2(��Sv/h),MP-3(��Sv/h),MP-4(��Sv/h),MP-5(��Sv/h),MP-6(��Sv/h),MP-7(��Sv/h),MP-8(��Sv/h),����,����(m/s),���J
2019/02/09,00:00,0.783,1.165,0.806,1.497,1.075,0.445,0.796,0.751,�k,6.1,��
2019/02/09,00:10,0.781,1.164,0.804,1.498,1.079,0.444,0.794,0.751,�k,6.6,��
2019/02/09,00:20,0.780,1.165,0.805,1.498,1.078,0.445,0.793,0.751,�k,4.5,��
2019/02/09,00:30,0.780,1.165,0.805,1.497,1.076,0.445,0.794,0.752,�k�k��,4.5,��
2019/02/09,00:40,0.782,1.162,0.806,1.499,1.075,0.445,0.794,0.750,�k,5.3,��
2019/02/09,00:50,0.782,1.166,0.807,1.497,1.077,0.445,0.794,0.751,�k,5.5,��
2019/02/09,01:00,0.783,1.165,0.807,1.499,1.076,0.445,0.794,0.752,�k,4.0,��
2019/02/09,01:10,0.782,1.169,0.807,1.497,1.077,0.445,0.794,0.750,�k,3.7,��
2019/02/09,01:20,0.782,1.167,0.808,1.496,1.076,0.443,0.792,0.751,�k,4.9,��
2019/02/09,01:30,0.784,1.168,0.806,1.499,1.077,0.444,0.793,0.751,�k,4.1,��
2019/02/09,01:40,0.781,1.167,0.807,1.501,1.078,0.446,0.792,0.751,�k,4.1,��
2019/02/09,01:50,0.782,1.167,0.807,1.496,1.076,0.445,0.792,0.751,�k�k��,4.1,��
2019/02/09,02:00,0.782,1.166,0.806,1.495,1.077,0.443,0.794,0.751,�k,4.3,��
2019/02/09,02:10,0.782,1.169,0.807,1.498,1.076,0.445,0.794,0.751,�k,3.6,��
2019/02/09,02:20,0.782,1.168,0.806,1.499,1.077,0.445,0.793,0.752,�k�k��,2.9,��
2019/02/09,02:30,0.780,1.169,0.805,1.499,1.076,0.444,0.793,0.751,�k�k��,3.3,��
2019/02/09,02:40,0.782,1.166,0.805,1.498,1.077,0.444,0.794,0.752,�k��,2.3,��
2019/02/09,02:50,0.782,1.170,0.807,1.497,1.076,0.445,0.795,0.750,���k��,2.2,��
2019/02/09,03:00,0.783,1.167,0.806,1.497,1.078,0.443,0.794,0.750,���k��,2.6,��
2019/02/09,03:10,0.782,1.168,0.807,1.498,1.076,0.446,0.793,0.751,���k��,3.8,��
2019/02/09,03:20,0.784,1.168,0.807,1.498,1.076,0.446,0.792,0.750,���k��,4.0,��
2019/02/09,03:30,0.782,1.167,0.807,1.496,1.076,0.444,0.794,0.751,���k��,4.0,��
2019/02/09,03:40,0.784,1.167,0.807,1.499,1.076,0.444,0.793,0.750,���k��,3.7,��
2019/02/09,03:50,0.783,1.168,0.807,1.499,1.077,0.444,0.794,0.751,���k��,3.5,��
2019/02/09,04:00,0.784,1.169,0.808,1.499,1.078,0.444,0.795,0.751,���k��,3.8,��
2019/02/09,04:10,0.784,1.166,0.808,1.500,1.077,0.443,0.794,0.751,�k��,4.4,��
2019/02/09,04:20,0.784,1.169,0.805,1.496,1.079,0.445,0.793,0.752,�k��,4.9,��
2019/02/09,04:30,0.783,1.169,0.806,1.499,1.076,0.444,0.795,0.751,�k��,5.1,��
2019/02/09,04:40,0.783,1.170,0.807,1.499,1.077,0.443,0.792,0.752,�k�k��,5.7,��
2019/02/09,04:50,0.784,1.169,0.806,1.500,1.075,0.444,0.794,0.749,�k�k��,6.0,��
2019/02/09,05:00,0.784,1.167,0.806,1.497,1.077,0.444,0.794,0.752,�k��,6.9,��
2019/02/09,05:10,0.781,1.167,0.806,1.498,1.079,0.445,0.795,0.752,�k��,6.6,��
2019/02/09,05:20,0.784,1.168,0.806,1.499,1.074,0.444,0.796,0.751,�k��,6.1,��
2019/02/09,05:30,0.783,1.168,0.806,1.498,1.077,0.445,0.794,0.752,�k��,5.3,��
2019/02/09,05:40,0.782,1.168,0.806,1.497,1.076,0.444,0.793,0.752,�k��,4.7,��
2019/02/09,05:50,0.782,1.170,0.808,1.497,1.076,0.444,0.795,0.753,�k��,4.6,��
2019/02/09,06:00,0.782,1.168,0.807,1.498,1.077,0.445,0.794,0.751,���k��,4.6,��
2019/02/09,06:10,0.783,1.168,0.806,1.497,1.078,0.443,0.793,0.751,���k��,4.5,��
2019/02/09,06:20,0.783,1.168,0.807,1.496,1.076,0.446,0.794,0.752,�k��,4.0,��
2019/02/09,06:30,0.784,1.168,0.809,1.499,1.077,0.444,0.793,0.751,�k��,4.1,��
2019/02/09,06:40,0.785,1.168,0.806,1.498,1.076,0.445,0.793,0.752,�k�k��,2.6,��
2019/02/09,06:50,0.784,1.165,0.806,1.499,1.077,0.445,0.794,0.753,�k�k��,3.0,��
2019/02/09,07:00,0.783,1.168,0.807,1.498,1.076,0.446,0.794,0.751,�k�k��,2.6,��
2019/02/09,07:10,0.783,1.167,0.807,1.496,1.076,0.443,0.794,0.753,�k,2.0,��
2019/02/09,07:20,0.783,1.167,0.805,1.498,1.077,0.443,0.794,0.751,�k�k��,2.3,��
2019/02/09,07:30,0.782,1.170,0.807,1.495,1.076,0.443,0.793,0.753,�k��,1.7,��
2019/02/09,07:40,0.783,1.168,0.806,1.497,1.076,0.444,0.792,0.751,�k�k��,1.2,��
2019/02/09,07:50,0.783,1.167,0.807,1.496,1.077,0.445,0.794,0.750,�k��,1.2,��
2019/02/09,08:00,0.784,1.169,0.808,1.499,1.076,0.444,0.794,0.751,�k��,1.9,��
2019/02/09,08:10,0.783,1.167,0.806,1.497,1.076,0.443,0.794,0.753,�k�k��,2.3,��
2019/02/09,08:20,0.782,1.165,0.805,1.497,1.079,0.445,0.795,0.751,�k��,2.3,��
2019/02/09,08:30,0.785,1.170,0.806,1.498,1.075,0.446,0.795,0.752,�k��,3.5,��
2019/02/09,08:40,0.785,1.167,0.806,1.498,1.077,0.445,0.794,0.751,�k��,3.1,��
2019/02/09,08:50,0.784,1.168,0.807,1.499,1.078,0.445,0.794,0.751,���k��,2.8,��
2019/02/09,09:00,0.785,1.166,0.809,1.500,1.075,0.445,0.794,0.753,���k��,2.2,��
2019/02/09,09:10,0.784,1.164,0.807,1.499,1.078,0.445,0.793,0.752,�k��,2.6,��
2019/02/09,09:20,0.783,1.165,0.807,1.499,1.079,0.447,0.794,0.752,��,1.7,��
2019/02/09,09:30,0.785,1.167,0.808,1.498,1.076,0.443,0.795,0.751,��,1.4,��
2019/02/09,09:40,0.783,1.162,0.807,1.497,1.077,0.443,0.797,0.751,�쐼,2.0,�L
2019/02/09,09:50,0.783,1.167,0.806,1.500,1.078,0.445,0.793,0.749,��쐼,2.0,�L
2019/02/09,10:00,0.783,1.166,0.807,1.497,1.078,0.445,0.794,0.751,���쐼,1.7,�L
2019/02/09,10:10,0.783,1.165,0.806,1.499,1.077,0.447,0.795,0.752,�쐼,1.5,�L
2019/02/09,10:20,0.783,1.167,0.810,1.497,1.076,0.445,0.793,0.752,��,2.2,�L
2019/02/09,10:30,0.784,1.165,0.808,1.497,1.079,0.445,0.793,0.753,��,1.7,�L
2019/02/09,10:40,0.784,1.167,0.807,1.499,1.078,0.444,0.795,0.754,��,2.3,�L
2019/02/09,10:50,0.785,1.165,0.808,1.498,1.080,0.445,0.794,0.751,��,1.9,�L
2019/02/09,11:00,0.782,1.163,0.807,1.499,1.078,0.444,0.792,0.751,�쐼,0.9,�L
2019/02/09,11:10,0.783,1.161,0.805,1.495,1.074,0.444,0.793,0.752,�쐼,0.9,�L
2019/02/09,11:20,0.783,1.163,0.804,1.494,1.077,0.445,0.794,0.751,���쐼,1.2,�L
2019/02/09,11:30,0.782,1.161,0.806,1.495,1.073,0.446,0.793,0.750,���k��,1.4,�L
2019/02/09,11:40,0.781,1.163,0.804,1.494,1.073,0.445,0.792,0.750,�k��,2.8,�L
2019/02/09,11:50,0.780,1.161,0.805,1.492,1.070,0.445,0.792,0.752,���k��,2.5,�L
2019/02/09,12:00,0.780,1.160,0.805,1.489,1.072,0.444,0.791,0.750,�k��,3.8,�L
2019/02/09,12:10,0.781,1.161,0.802,1.488,1.069,0.444,0.791,0.749,�k��,3.8,�L
2019/02/09,12:20,0.778,1.158,0.803,1.490,1.068,0.442,0.791,0.748,�k�k��,3.2,�L
2019/02/09,12:30,0.780,1.156,0.802,1.488,1.069,0.444,0.790,0.748,�k�k��,2.9,�L
2019/02/09,12:40,0.778,1.155,0.802,1.486,1.066,0.445,0.790,0.749,�k��,3.6,�L
2019/02/09,12:50,0.777,1.153,0.802,1.488,1.066,0.445,0.790,0.748,�k�k��,2.9,�L
2019/02/09,13:00,0.777,1.152,0.804,1.487,1.064,0.445,0.789,0.747,�k�k��,2.6,�L
2019/02/09,13:10,0.780,1.154,0.800,1.485,1.066,0.444,0.789,0.749,�k,1.7,�L
2019/02/09,13:20,0.778,1.154,0.803,1.486,1.064,0.446,0.790,0.750,�k,1.5,�L
2019/02/09,13:30,0.779,1.153,0.802,1.485,1.066,0.443,0.790,0.747,�k,1.5,�L
2019/02/09,13:40,0.779,1.153,0.802,1.487,1.065,0.444,0.790,0.749,�k�k��,1.4,�L
2019/02/09,13:50,0.779,1.153,0.799,1.487,1.066,0.445,0.791,0.746,�k�k��,1.5,�L
2019/02/09,14:00,0.779,1.151,0.803,1.486,1.064,0.445,0.791,0.748,�k,1.9,��
2019/02/09,14:10,0.779,1.151,0.801,1.486,1.063,0.445,0.789,0.747,�k�k��,1.7,�L
2019/02/09,14:20,0.778,1.152,0.802,1.487,1.065,0.442,0.789,0.747,�k��,2.0,��
2019/02/09,14:30,0.778,1.151,0.800,1.486,1.065,0.444,0.790,0.747,�k��,1.7,��
2019/02/09,14:40,0.778,1.149,0.802,1.484,1.066,0.443,0.790,0.748,�k��,2.2,�L
2019/02/09,14:50,0.778,1.151,0.804,1.484,1.063,0.444,0.791,0.748,�k�k��,3.2,��
2019/02/09,15:00,0.779,1.150,0.800,1.485,1.062,0.445,0.789,0.747,�k�k��,4.2,�L
2019/02/09,15:10,0.777,1.150,0.803,1.483,1.062,0.444,0.789,0.747,�k�k��,4.2,��
2019/02/09,15:20,0.776,1.149,0.800,1.482,1.062,0.443,0.790,0.748,�k�k��,4.0,�L
2019/02/09,15:30,0.779,1.150,0.800,1.479,1.060,0.443,0.788,0.746,�k�k��,3.8,�L
2019/02/09,15:40,0.778,1.147,0.802,1.481,1.060,0.444,0.788,0.748,�k��,4.3,�L
2019/02/09,15:50,0.777,1.150,0.800,1.480,1.064,0.442,0.788,0.747,�k��,5.0,�L
2019/02/09,16:00,0.778,1.149,0.800,1.480,1.060,0.443,0.791,0.746,�k��,4.5,�L
2019/02/09,16:10,0.775,1.147,0.798,1.479,1.060,0.443,0.792,0.747,���k��,3.8,�L
2019/02/09,16:20,0.774,1.148,0.800,1.478,1.057,0.443,0.788,0.747,���k��,3.7,�L
2019/02/09,16:30,0.774,1.145,0.798,1.477,1.058,0.442,0.789,0.748,���k��,4.4,�L
2019/02/09,16:40,0.771,1.144,0.800,1.475,1.055,0.442,0.788,0.746,���k��,4.2,�L
2019/02/09,16:50,0.770,1.140,0.795,1.473,1.050,0.443,0.787,0.745,���k��,3.8,�L
2019/02/09,17:00,0.770,1.138,0.792,1.467,1.049,0.442,0.787,0.745,�k��,5.4,�L
2019/02/09,17:10,0.766,1.132,0.793,1.466,1.044,0.441,0.784,0.745,�k��,5.0,�L
2019/02/09,17:20,0.765,1.126,0.789,1.461,1.043,0.441,0.784,0.743,�k��,3.8,�L
2019/02/09,17:30,0.764,1.123,0.789,1.460,1.038,0.440,0.783,0.745,�k��,4.8,�L
2019/02/09,17:40,0.761,1.124,0.788,1.460,1.037,0.441,0.784,0.744,�k��,4.8,�L
2019/02/09,17:50,0.760,1.119,0.784,1.454,1.037,0.440,0.780,0.743,�k��,5.8,�L
2019/02/09,18:00,0.759,1.117,0.784,1.452,1.032,0.440,0.780,0.744,�k��,7.0,�L
2019/02/09,18:10,0.758,1.109,0.782,1.448,1.028,0.439,0.782,0.741,�k�k��,7.7,�L
2019/02/09,18:20,0.755,1.107,0.780,1.446,1.024,0.438,0.781,0.738,�k��,7.7,�L
2019/02/09,18:30,0.754,1.100,0.779,1.442,1.022,0.436,0.779,0.740,�k��,7.2,�L
2019/02/09,18:40,0.752,1.098,0.776,1.437,1.020,0.435,0.777,0.740,�k��,7.6,�L
2019/02/09,18:50,0.749,1.096,0.777,1.433,1.016,0.434,0.777,0.739,�k��,7.2,�L
2019/02/09,19:00,0.749,1.094,0.776,1.432,1.016,0.435,0.775,0.740,�k��,8.0,�L
2019/02/09,19:10,0.745,1.088,0.773,1.430,1.013,0.434,0.772,0.741,�k�k��,8.9,�L
2019/02/09,19:20,0.748,1.088,0.772,1.428,1.009,0.434,0.770,0.740,�k��,8.5,�L
2019/02/09,19:30,0.745,1.084,0.771,1.423,1.010,0.435,0.771,0.739,�k��,9.0,�L
2019/02/09,19:40,0.743,1.082,0.770,1.419,1.004,0.433,0.768,0.738,�k��,7.3,�L
2019/02/09,19:50,0.740,1.077,0.768,1.421,1.003,0.433,0.768,0.738,�k��,9.5,�L
2019/02/09,20:00,0.740,1.074,0.767,1.414,0.998,0.433,0.768,0.737,�k�k��,8.9,�L
2019/02/09,20:10,0.738,1.070,0.765,1.413,0.999,0.432,0.768,0.734,�k�k��,8.2,�L
2019/02/09,20:20,0.737,1.067,0.763,1.410,0.992,0.431,0.766,0.734,�k�k��,8.8,�L
2019/02/09,20:30,0.736,1.063,0.762,1.407,0.993,0.430,0.766,0.736,�k�k��,9.7,�L
2019/02/09,20:40,0.733,1.061,0.762,1.407,0.990,0.430,0.765,0.737,�k�k��,9.1,�L
2019/02/09,20:50,0.733,1.060,0.759,1.405,0.990,0.430,0.765,0.735,�k�k��,8.0,�L
2019/02/09,21:00,0.730,1.060,0.760,1.403,0.988,0.429,0.764,0.734,�k�k��,9.1,�L
2019/02/09,21:10,0.734,1.061,0.759,1.402,0.988,0.430,0.765,0.735,�k�k��,8.1,�L
2019/02/09,21:20,0.732,1.057,0.760,1.397,0.986,0.430,0.766,0.733,�k�k��,8.9,��
2019/02/09,21:30,0.732,1.055,0.761,1.399,0.986,0.431,0.765,0.735,�k�k��,8.7,�L
2019/02/09,21:40,0.732,1.059,0.758,1.398,0.986,0.429,0.764,0.734,�k�k��,8.4,��
2019/02/09,21:50,0.730,1.058,0.759,1.398,0.985,0.429,0.768,0.733,�k�k��,8.3,��
2019/02/09,22:00,0.731,1.060,0.761,1.402,0.984,0.430,0.768,0.735,�k�k��,7.0,�L
2019/02/09,22:10,0.731,1.060,0.761,1.402,0.985,0.430,0.767,0.735,�k�k��,6.8,��
2019/02/09,22:20,0.731,1.059,0.761,1.399,0.984,0.430,0.767,0.732,�k�k��,6.9,��
2019/02/09,22:30,0.730,1.057,0.761,1.399,0.985,0.429,0.767,0.734,�k�k��,7.0,��
2019/02/09,22:40,0.730,1.057,0.760,1.399,0.984,0.430,0.766,0.733,�k��,6.9,��
2019/02/09,22:50,0.729,1.057,0.760,1.399,0.984,0.429,0.767,0.733,�k�k��,6.7,��
2019/02/09,23:00,0.730,1.058,0.757,1.399,0.983,0.430,0.766,0.734,�k��,6.7,��
2019/02/09,23:10,0.730,1.057,0.758,1.400,0.984,0.428,0.766,0.734,�k�k��,6.9,��
2019/02/09,23:20,0.728,1.058,0.758,1.397,0.985,0.427,0.767,0.735,�k�k��,6.4,��
2019/02/09,23:30,0.729,1.057,0.759,1.399,0.984,0.429,0.766,0.733,�k��,6.0,��
2019/02/09,23:40,0.730,1.058,0.760,1.398,0.983,0.429,0.768,0.734,�k�k��,7.2,��
2019/02/09,23:50,0.731,1.059,0.761,1.398,0.985,0.428,0.767,0.733,�k�k��,6.7,��
